Probability
0 0 0 0 0 0 0 0 0 0 0 0 1 3 6 8 13 28 45 52 50 45 42 44 47 52 58 62 63 67 73 77 81 85 86 82 78 73 65 52 38 30 26 23
0 0 0 0 0 0 0 0 0 0 0 0 1 2 3 5 11 27 45 53 52 49 47 46 45 44 47 50 55 64 72 74 78 81 82 80 75 69 58 42 29 23 20 18
0 0 0 0 0 0 0 0 0 0 0 0 0 0 1 2 7 21 37 46 48 48 46 45 41 35 34 38 45 55 63 66 67 70 71 68 63 55 41 26 16 13 12 11
0 0 0 0 0 0 0 0 0 0 0 0 0 0 0 1 4 12 22 28 30 31 33 35 34 31 30 34 39 45 50 50 49 52 53 49 44 36 24 13 8 6 5 5
0 0 0 0 0 0 0 0 0 0 0 0 0 0 0 0 1 5 10 13 12 13 16 21 25 27 29 33 35 37 35 33 32 34 34 31 26 19 12 7 4 2 1 1
0 0 0 0 0 0 0 0 0 0 0 0 0 0 0 1 2 4 6 7 6 5 7 12 16 20 24 27 29 28 23 19 19 20 18 16 12 8 6 4 2 0 0 0
0 0 0 0 0 0 0 0 0 0 0 0 0 0 0 1 3 3 4 4 4 4 5 8 10 12 14 15 16 16 13 10 11 11 9 7 5 3 3 2 1 0 0 0
0 0 0 0 0 0 0 0 0 0 0 0 0 0 1 2 3 3 3 3 3 3 4 5 5 5 5 5 5 6 5 5 5 6 4 2 1 1 1 1 0 0 0 0
0 0 0 0 0 0 0 0 0 0 0 0 0 0 1 2 3 3 3 3 3 3 3 3 2 1 1 1 1 1 1 2 2 3 3 1 0 0 0 0 0 0 0 0
0 0 0 0 0 0 0 0 0 0 0 0 0 0 0 1 1 2 2 3 3 3 3 2 1 0 0 0 0 0 0 0 0 1 2 1 0 0 0 0 0 0 0 0
0 0 0 0 0 0 0 0 0 0 0 0 0 0 0 0 0 1 1 1 2 2 1 1 0 0 0 0 0 1 1 1 1 1 2 1 0 0 0 0 0 0 0 0
0 0 0 0 0 0 0 0 0 0 0 0 0 0 0 0 0 0 0 0 1 1 0 0 0 0 0 0 1 2 2 2 2 2 2 1 0 0 0 0 0 0 0 0
0 0 0 0 0 0 0 0 0 0 0 0 0 0 0 0 0 0 0 0 0 0 0 0 0 0 0 0 2 3 3 3 3 3 1 0 0 0 0 0 0 0 0 0
0 0 0 0 0 0 0 0 0 0 0 0 0 0 0 0 0 0 0 0 0 0 0 0 0 0 0 0 1 2 3 3 3 2 1 0 0 0 0 0 0 0 0 0
0 0 0 0 0 0 0 0 0 0 0 0 0 0 0 0 0 0 0 0 0 0 0 0 0 0 0 0 0 1 1 2 2 1 0 0 0 0 0 0 0 0 0 0
0 0 0 0 0 0 0 0 0 0 0 0 0 0 0 0 0 0 0 0 0 0 0 0 0 0 0 0 0 0 0 1 1 0 1 1 0 0 0 0 0 0 0 0
0 0 0 0 0 0 0 0 0 0 0 0 0 0 0 0 0 0 0 0 0 0 0 0 0 0 0 0 0 0 0 0 0 0 1 1 0 0 0 0 0 0 0 0
0 0 0 0 0 0 0 0 0 0 0 0 0 0 0 0 0 0 0 0 0 0 0 0 0 0 0 0 0 0 0 0 0 0 1 1 0 0 0 0 0 0 0 0
0 0 0 0 0 0 0 0 0 0 0 0 0 0 0 0 0 0 0 0 0 0 0 0 0 0 0 0 0 0 0 0 0 0 0 0 0 0 0 0 0 0 0 0
0 0 0 0 0 0 0 0 0 0 0 0 0 0 0 0 0 0 0 0 0 0 0 0 0 0 0 0 0 0 0 0 0 0 0 0 0 0 0 0 0 0 0 0
0 0 0 0 0 0 0 0 0 0 0 0 0 0 0 0 0 0 0 0 0 0 0 0 0 0 0 0 0 0 0 0 0 0 0 0 0 0 0 0 0 0 0 0
0 0 0 0 0 0 0 0 0 0 0 0 0 0 0 0 0 0 0 0 0 0 0 0 0 0 0 0 0 0 0 0 0 0 0 0 0 0 0 0 0 0 0 0
0 0 0 0 0 0 0 0 0 0 0 0 0 0 0 0 0 0 0 0 0 0 0 0 0 0 0 0 0 0 0 0 0 0 0 0 0 0 0 0 0 0 0 0
0 0 0 0 0 0 0 0 0 0 0 0 0 0 0 0 0 0 0 0 0 0 0 0 0 0 0 0 0 0 0 0 0 0 0 0 0 0 0 0 0 0 0 0
0 0 0 0 0 0 0 0 0 0 0 0 0 0 0 0 0 0 0 0 0 0 0 0 0 0 0 0 0 0 0 0 0 0 0 0 0 0 0 0 0 0 0 0
0 0 0 0 0 0 0 0 0 0 0 0 0 0 0 0 0 0 0 0 0 0 0 0 0 0 0 0 0 0 0 0 0 0 0 0 0 0 0 0 0 0 0 0
Wind_Speed
3 4 2 5 6 4 1 2 6 7 5 3 5 6 9 9 3 3 4 7 8 9 6 4 5 7 7 8 9 10 9 9 7 5 5 5 4 3 3 2 2 2 2 2
5 3 7 5 3 3 2 3 4 6 5 3 4 5 5 7 6 3 1 1 2 1 2 2 2 2 3 3 3 3 5 6 6 5 4 3 3 2 2 1 2 2 2 2
2 5 4 1 1 1 1 3 3 4 5 5 5 8 6 6 7 10 9 5 3 2 1 2 4 5 4 3 3 3 3 3 3 3 2 2 2 2 2 1 1 2 3 3
2 4 3 3 1 1 2 3 3 1 2 4 3 4 6 5 7 9 9 7 6 5 3 2 1 3 3 3 2 2 2 3 3 3 3 4 3 3 3 2 2 1 2 2
3 3 3 3 2 1 2 2 2 2 1 2 3 1 7 5 6 7 8 7 5 4 3 3 2 1 2 2 1 0 1 2 3 3 2 3 3 3 3 3 3 1 1 1
4 3 2 3 1 1 1 5 5 5 4 2 2 1 6 2 3 5 5 5 5 4 4 3 3 3 3 3 3 1 1 1 1 3 3 3 4 5 4 4 3 2 1 1
5 6 3 1 1 4 5 6 5 6 5 5 4 2 7 3 1 3 3 3 3 3 2 2 3 3 3 3 2 1 0 1 1 2 3 3 4 4 4 4 3 2 1 0
2 6 4 2 1 1 1 6 5 3 4 5 5 5 6 2 2 3 3 3 3 3 3 3 2 2 2 2 1 1 2 2 3 3 3 3 3 3 2 3 3 2 1 0
5 5 3 3 2 4 3 2 4 5 1 3 6 7 7 2 4 5 5 5 5 5 5 5 4 4 3 2 2 1 1 2 2 3 4 4 4 4 3 3 3 2 1 0
8 4 3 2 3 6 3 6 5 4 2 4 6 5 5 5 6 6 6 7 8 7 6 6 5 4 4 3 2 1 1 2 3 3 3 4 4 4 4 3 3 2 1 1
5 5 3 3 1 1 2 3 5 4 4 4 5 9 7 7 7 7 9 8 8 8 8 7 5 4 4 3 2 1 2 2 3 4 3 4 5 4 4 3 2 1 1 2
3 5 2 4 3 1 2 5 7 4 4 4 3 11 7 7 7 7 9 9 8 7 7 6 5 4 3 3 2 2 2 3 3 4 4 4 4 4 4 3 2 3 3 3
6 6 2 7 7 2 2 3 3 5 4 4 5 11 5 3 6 6 8 9 8 7 7 5 4 3 3 2 2 2 2 2 3 4 5 5 4 4 3 3 3 4 4 5
7 6 7 8 8 5 4 4 5 6 4 6 10 12 12 10 9 8 7 8 8 7 5 3 2 2 2 1 1 2 1 1 2 3 4 4 3 3 3 3 4 4 4 5
5 5 6 7 6 4 6 7 7 9 10 10 11 10 14 10 7 7 6 5 6 6 4 3 2 2 1 1 1 1 1 1 2 3 3 3 3 4 4 4 4 5 5 5
3 4 3 4 6 5 6 10 9 9 8 9 8 12 12 7 4 5 6 5 6 6 5 3 3 3 3 2 2 1 1 1 2 3 3 3 4 4 4 5 5 5 5 4
3 6 4 5 3 2 8 11 9 7 8 9 11 13 6 5 7 8 7 6 6 6 5 4 4 4 4 4 3 3 2 2 3 3 3 3 4 4 4 5 5 5 4 4
7 6 4 2 1 7 12 5 6 7 8 9 8 7 7 9 6 5 6 7 7 7 6 5 5 4 4 3 3 2 2 3 3 4 3 4 4 5 4 5 5 4 3 4
6 8 5 4 4 9 10 6 7 7 9 8 9 9 5 2 1 5 7 8 9 7 6 6 5 4 4 3 3 3 3 3 4 4 4 4 5 5 5 5 4 3 4 4
5 5 5 4 4 8 11 6 3 4 6 7 8 9 5 6 1 8 6 7 8 6 5 5 4 4 4 3 3 4 3 4 4 4 4 4 4 5 5 5 4 3 4 5
2 1 3 6 7 11 10 4 5 4 10 6 8 9 8 10 11 7 3 4 6 7 6 5 5 5 4 4 4 4 4 5 4 4 5 4 4 4 4 4 3 5 6 6
4 3 5 4 5 11 5 5 8 11 6 4 7 9 10 12 10 6 5 6 7 7 6 6 6 5 4 5 5 5 5 4 4 5 5 4 4 4 4 5 4 5 6 6
7 9 7 10 11 9 5 8 9 5 6 7 7 9 11 10 10 8 7 8 8 8 8 7 7 6 4 5 6 6 5 5 6 6 5 5 4 4 4 5 6 5 5 5
6 4 4 7 11 10 10 8 8 8 10 11 9 9 9 11 11 9 8 8 8 8 8 6 7 6 6 6 6 6 6 7 7 7 5 5 5 4 4 3 4 5 5 5
8 4 5 9 10 9 9 10 11 10 9 10 9 8 10 12 11 10 9 10 10 9 7 7 8 8 8 7 7 6 7 8 7 6 5 5 4 5 4 3 2 3 3 4
6 8 7 11 13 9 10 10 9 9 10 10 9 9 9 12 13 11 11 11 10 10 8 8 8 8 8 7 7 7 8 9 8 6 6 5 4 4 4 4 3 4 2 3
Wind_Direction
39 50 295 249 208 206 234 290 293 281 294 320 304 305 321 344 325 234 202 194 197 208 211 198 199 197 197 200 201 203 201 202 188 181 187 187 189 187 190 194 198 205 211 200
31 314 262 249 213 206 237 287 294 298 325 352 316 318 338 17 8 342 232 208 229 298 1 331 311 268 237 230 226 214 203 200 195 194 186 175 159 162 142 128 95 62 49 41
209 264 306 349 70 138 250 213 255 284 330 7 5 344 352 5 20 33 34 29 27 34 6 353 341 324 315 276 233 213 200 193 191 189 148 123 112 106 107 91 54 23 22 24
277 282 342 14 23 126 288 258 241 270 20 324 13 312 311 350 12 22 18 13 7 6 10 11 326 288 285 285 268 205 173 161 160 158 176 182 182 181 173 162 145 64 25 23
291 298 332 326 293 266 251 23 45 26 128 336 348 257 290 355 7 1 358 4 2 6 8 351 335 328 346 1 13 51 143 151 149 141 178 206 185 172 148 144 134 131 72 41
259 278 248 249 308 18 86 64 49 43 61 325 291 279 282 320 331 324 339 351 358 1 5 357 353 3 11 12 18 28 163 130 124 135 153 185 167 150 148 145 144 147 118 37
324 323 317 281 6 18 62 70 17 354 4 265 286 255 249 237 268 295 303 312 324 338 344 340 348 352 352 351 351 341 126 151 131 136 134 151 145 146 153 149 147 144 141 99
282 301 307 334 186 188 101 131 156 224 238 279 313 256 254 219 229 251 255 259 270 279 282 282 285 284 290 297 300 271 209 178 157 145 123 113 120 122 126 133 134 138 143 131
193 253 297 2 25 125 125 132 159 139 205 278 281 293 299 214 245 251 253 258 261 263 267 268 274 276 274 274 272 252 218 146 135 136 133 125 123 122 126 121 114 115 110 83
168 218 278 303 66 39 89 140 100 121 199 273 288 280 255 246 250 256 258 260 263 264 263 263 264 270 277 277 289 288 198 151 138 143 141 134 126 126 129 119 111 103 81 39
151 174 285 358 37 254 110 103 110 122 160 179 268 270 234 231 241 250 261 263 266 268 264 260 260 263 264 265 256 210 179 158 146 146 140 133 129 127 121 114 112 106 73 42
126 127 235 282 287 280 200 175 149 160 224 192 213 268 261 242 255 255 268 277 276 271 268 266 264 260 255 254 244 206 181 164 162 151 145 141 135 133 126 111 93 81 69 55
138 115 42 338 339 343 100 145 147 129 130 171 195 263 285 276 279 266 265 278 284 281 276 278 279 265 256 254 260 229 183 169 159 152 148 141 140 136 121 102 88 80 76 61
120 132 170 208 225 213 223 195 164 147 175 217 224 252 283 282 276 276 272 275 282 279 273 271 266 273 276 279 275 261 224 151 138 140 141 141 141 135 125 111 97 89 83 71
121 180 217 232 236 209 227 232 197 195 204 211 238 242 259 263 257 259 264 277 283 279 263 236 202 206 237 265 260 231 188 119 120 124 128 133 131 127 121 111 100 93 84 78
129 190 203 261 251 235 254 252 236 224 218 224 247 261 254 252 242 251 257 265 272 269 256 223 192 192 188 208 230 213 171 130 124 124 125 126 124 122 122 117 109 101 91 81
172 158 161 255 282 332 269 241 224 219 214 197 221 243 255 235 235 236 241 236 246 250 243 219 196 190 195 207 209 200 192 151 130 128 127 127 127 121 119 121 114 112 107 95
160 145 160 211 150 230 243 238 201 217 243 219 228 242 225 225 237 238 224 221 233 235 229 216 200 195 199 201 198 188 172 158 147 137 132 131 126 119 117 115 115 116 114 109
155 143 143 156 215 265 286 259 197 202 259 228 221 241 242 212 345 287 235 213 219 224 221 210 195 187 190 198 195 178 172 164 155 151 144 141 138 133 128 124 123 120 119 109
81 111 136 160 204 245 248 253 176 135 269 248 210 231 205 133 228 267 253 214 216 215 205 194 182 174 189 204 181 174 177 170 171 162 149 143 142 142 139 135 129 120 118 110
31 85 185 204 227 259 254 239 132 176 241 248 207 215 183 189 216 229 221 210 202 196 195 185 177 186 201 188 167 177 185 194 184 156 142 141 141 142 138 127 121 124 118 110
221 223 222 191 211 256 253 156 189 220 233 239 220 213 203 218 235 231 225 220 200 190 188 181 182 202 205 182 172 182 200 195 159 144 138 136 138 141 135 127 121 125 126 119
215 204 204 199 220 238 233 214 233 226 233 240 228 225 213 223 234 227 220 214 204 196 192 184 187 199 202 190 181 188 194 163 148 141 139 136 130 125 133 138 136 130 132 132
268 217 219 255 261 256 252 251 254 237 232 242 236 229 210 218 227 219 213 207 202 200 193 184 181 192 204 200 195 193 171 158 150 148 146 142 135 128 130 137 147 148 152 148
237 233 238 257 268 281 275 256 252 258 253 252 248 230 217 218 224 213 209 206 203 198 190 181 188 198 206 196 195 186 168 158 154 154 152 149 146 143 138 128 132 160 169 171
224 218 231 255 255 244 254 256 256 259 261 255 251 251 232 214 222 211 209 207 199 197 188 188 198 204 205 193 194 186 173 165 159 161 163 161 155 152 148 138 106 62 104 165